Location: Newark
(54.8972°N, 99.8189°W)
Time: 19:33:03
(UTC+00:00)

Transit 2A - Pass Details

Date: 22 November 2019
Orbit: 602 x 957 km, 66.7° (Epoch: 07 December)

Event Time Altitude Azimuth Distance (km) Brightness Sun altitude
Rises 00:23:35 0° 314° (NW) 2,904 9.5 -16.0°
Reaches altitude 10° 00:26:09 10° 326° (NNW) 1,973 8.4 -16.4°
Maximum altitude 00:29:58 28° 27° (NNE) 1,140 6.6 -16.9°
Enters shadow 00:30:37 27° 43° (NE) 1,171 6.5 -17.0°
